Location: Unspecified
(50.7693°N, 0.0000°E)
Time: 09:23:24
(UTC+00:00)

Transit 2A - Pass Details

Date: 28 June 2019
Orbit: 594 x 965 km, 66.7° (Epoch: 16 July)

Event Time Altitude Azimuth Distance (km) Brightness Sun altitude
Rises 22:09:15 0° 188° (S) 3,629 - -11.8°
Reaches altitude 10° 22:11:57 10° 181° (S) 2,695 - -12.0°
Exits shadow 22:12:30 13° 179° (S) 2,513 8.1 -12.0°
Maximum altitude 22:17:48 40° 115° (ESE) 1,382 7.0 -12.4°
Drops below altitude 10° 22:23:31 10° 48° (NE) 2,637 9.0 -12.8°
Sets 22:26:08 0° 41° (NE) 3,543 9.8 -12.9°
